Date,TemperatureHighF,TemperatureAvgF,TemperatureLowF,DewpointHighF,DewpointAvgF,DewpointLowF,HumidityHigh,HumidityAvg,HumidityLow,PressureMaxIn,PressureMinIn,WindSpeedMaxMPH,WindSpeedAvgMPH,GustSpeedMaxMPH,PrecipitationSumIn
2013-1-1,46.8,41.9,36.3,46.3,40.8,35.4,98,96,86,29.82,29.66,3,0,0,0.14
2013-1-2,46.9,41.0,36.7,46.4,40.5,36.2,98,98,91,29.93,29.66,5,1,0,0.06
2013-1-3,44.2,37.1,30.6,43.7,36.2,27.6,98,96,87,30.02,29.90,7,1,0,0.00
2013-1-4,49.6,35.8,26.8,49.1,33.8,26.3,98,92,77,30.10,29.97,8,3,0,0.00
2013-1-5,52.3,40.7,29.3,51.8,37.8,28.6,98,89,68,30.16,29.92,8,2,0,0.00
2013-1-6,54.0,42.2,32.2,51.2,40.5,31.7,98,94,76,29.95,29.77,8,2,0,0.01
2013-1-7,53.1,39.3,28.2,42.5,35.9,27.7,98,88,66,30.20,29.94,6,2,0,0.00
2013-1-8,53.4,38.2,23.4,46.4,36.1,22.9,98,93,75,30.23,30.11,8,1,0,0.00
2013-1-9,59.7,48.4,37.6,59.1,47.9,37.1,98,98,98,30.22,30.13,3,0,0,0.00
2013-1-10,62.2,53.3,47.3,60.1,50.6,44.5,98,91,69,30.30,30.17,5,1,0,0.00
2013-1-11,48.6,43.9,41.2,48.1,43.3,40.7,98,98,92,30.17,29.91,4,0,0,0.24
2013-1-12,67.5,54.7,44.8,66.9,54.1,44.3,98,98,98,29.94,29.83,4,0,0,0.00
2013-1-13,70.5,60.5,55.2,69.9,59.9,54.6,98,98,98,29.89,29.78,5,1,0,0.00
2013-1-14,60.8,57.5,50.0,60.2,56.9,49.5,98,98,98,29.94,29.81,4,1,0,2.82
2013-1-15,49.8,44.4,40.3,49.3,43.9,39.8,98,98,98,29.98,29.83,5,1,0,2.44
2013-1-16,50.2,44.8,40.1,49.7,44.3,39.6,98,98,98,29.83,29.71,4,1,0,0.76
2013-1-17,48.4,42.0,34.9,47.9,41.5,34.4,98,98,98,29.92,29.70,5,1,0,2.15
2013-1-18,45.9,35.1,27.3,34.4,30.6,26.8,98,85,58,30.27,29.94,9,3,0,0.00
2013-1-19,51.8,35.9,22.6,40.8,32.1,22.1,98,88,60,30.23,29.88,6,1,0,0.00
2013-1-20,57.9,43.4,27.3,43.6,36.2,26.8,98,78,52,29.87,29.78,8,3,0,0.00
2013-1-21,58.5,41.9,29.5,43.3,30.9,15.2,98,68,44,29.84,29.66,14,3,0,0.01
2013-1-22,34.2,27.5,19.2,16.5,8.2,2.8,63,45,29,30.00,29.74,11,4,0,0.00
2013-1-23,42.3,27.3,15.8,25.9,17.4,7.7,98,67,50,30.09,29.76,6,1,0,0.00
2013-1-24,42.1,29.4,18.7,34.2,17.8,9.5,98,63,41,30.26,29.70,12,3,0,0.00
2013-1-25,24.4,22.0,19.4,23.9,18.0,10.6,98,85,63,30.26,29.79,7,1,0,0.00
2013-1-26,41.4,30.6,19.9,35.5,28.2,19.4,98,92,70,30.11,29.81,3,1,0,0.06
2013-1-27,40.6,31.5,21.4,34.2,29.4,20.9,98,92,76,30.34,30.12,5,1,0,0.04
2013-1-28,51.3,39.6,32.4,48.6,38.8,31.9,98,97,87,30.20,29.98,5,1,0,0.07
2013-1-29,69.1,51.7,33.6,59.8,48.5,33.1,98,90,65,29.99,29.78,6,1,0,0.00
2013-1-30,66.9,61.1,48.4,66.3,60.5,47.9,98,98,98,29.77,29.13,14,4,0,2.69
2013-1-31,49.1,38.9,31.6,48.6,33.5,26.8,98,81,66,29.72,29.18,15,5,0,0.02
2013-2-1,37.6,28.1,19.2,34.4,24.5,15.3,98,86,74,30.11,29.60,11,4,0,0.00
2013-2-2,37.6,27.8,15.8,34.0,23.0,15.3,98,83,62,30.12,29.75,6,1,0,0.00
2013-2-3,46.0,37.4,30.9,42.1,35.7,30.4,98,94,83,29.76,29.58,12,4,0,0.00
2013-2-4,45.1,33.7,25.5,41.7,31.3,24.5,98,91,76,29.88,29.70,6,1,0,0.00
2013-2-5,56.5,40.5,28.4,50.4,38.5,27.9,98,93,76,29.72,29.67,10,2,0,0.00
2013-2-6,59.9,45.1,31.3,55.2,40.4,30.8,98,84,65,30.03,29.71,6,2,0,0.00
2013-2-7,44.4,37.7,33.8,43.9,37.0,31.1,98,97,88,30.11,29.82,4,1,0,0.41
2013-2-8,56.3,43.2,37.2,50.2,40.8,34.3,98,91,67,29.85,29.61,10,3,0,0.14
2013-2-9,55.4,41.4,32.2,45.7,33.2,25.2,88,73,56,30.08,29.85,12,3,0,0.00
2013-2-10,53.1,39.5,25.7,42.5,33.2,25.2,98,80,55,30.22,29.92,10,1,0,0.12
2013-2-11,53.1,46.1,39.0,52.0,44.1,38.5,98,93,63,29.92,29.70,6,1,0,0.08
2013-2-12,59.7,50.2,42.6,46.4,38.5,33.2,98,65,51,29.86,29.68,9,3,0,0.02
2013-2-13,45.7,42.0,37.6,45.2,41.5,37.1,98,98,98,29.71,29.39,9,2,0,0.29
2013-2-14,54.9,42.4,32.4,54.3,41.0,31.6,98,95,84,29.81,29.60,7,2,0,0.00
2013-2-15,60.6,43.0,27.0,60.0,42.4,26.5,98,98,97,29.84,29.67,9,2,0,0.00
2013-2-16,41.2,35.0,26.2,39.9,33.8,25.7,98,95,87,29.74,29.56,10,3,0,0.00
2013-2-17,37.0,28.5,20.8,36.5,27.7,19.4,98,97,88,29.98,29.69,11,4,0,0.02
2013-2-18,53.8,35.2,17.2,53.2,34.3,16.7,98,96,82,30.13,29.91,6,1,0,0.00
2013-2-19,52.3,39.2,30.4,51.8,38.7,29.9,98,98,98,29.92,29.58,12,3,0,0.05
2013-2-20,51.8,39.2,27.3,51.3,37.8,22.7,98,95,78,29.89,29.75,8,3,0,0.00
2013-2-21,59.2,42.4,24.8,51.8,31.4,16.4,98,71,33,30.01,29.83,6,1,0,0.00
2013-2-22,41.4,34.2,32.4,40.9,33.7,31.9,98,98,98,30.06,29.87,3,0,0,0.22
2013-2-23,48.0,40.0,33.8,47.5,39.5,33.3,98,98,98,29.88,29.56,3,0,0,0.28
2013-2-24,61.5,46.3,34.5,45.7,37.9,28.3,98,75,51,29.79,29.55,7,2,0,0.01
2013-2-25,42.8,35.3,29.5,33.7,31.3,27.5,98,86,68,29.98,29.79,4,1,0,0.00
2013-2-26,40.6,37.3,32.0,40.1,36.5,30.3,98,97,84,29.89,29.34,5,1,0,1.63
2013-2-27,56.7,45.3,35.8,45.0,40.6,35.3,98,85,59,29.53,29.33,8,2,0,0.04
2013-2-28,46.2,40.0,36.7,39.5,35.6,32.4,98,85,69,29.61,29.44,16,4,0,0.00
2013-3-1,43.3,39.2,36.1,36.2,33.9,32.1,98,82,67,29.65,29.58,10,2,0,0.00
2013-3-2,43.7,35.8,29.5,38.6,31.2,23.2,98,84,71,29.68,29.55,11,3,0,0.00
2013-3-3,40.8,32.0,27.3,35.7,27.0,20.7,96,82,74,29.73,29.65,12,5,0,0.00
2013-3-4,54.3,38.3,25.7,53.7,34.0,18.1,98,85,65,29.87,29.72,10,3,0,0.00
2013-3-5,52.3,41.1,34.2,46.3,36.8,22.3,98,85,59,29.80,29.35,4,1,0,1.00
2013-3-6,43.0,36.6,31.6,40.1,33.1,27.2,98,88,69,29.85,29.34,17,6,0,0.02
2013-3-7,48.6,37.9,29.8,40.3,33.6,29.3,98,85,66,30.03,29.85,9,4,0,0.00
2013-3-8,54.9,41.4,30.6,54.3,39.1,30.1,98,92,71,30.08,29.98,8,2,0,0.00
2013-3-9,64.6,46.6,28.2,64.0,44.7,27.7,98,94,69,30.13,29.98,5,1,0,0.00
2013-3-10,66.6,50.1,34.3,51.5,42.5,33.8,98,78,56,30.07,29.92,8,1,0,0.00
2013-3-11,59.5,49.5,39.6,58.0,47.5,37.5,98,93,62,29.95,29.61,5,1,0,0.25
2013-3-12,61.2,52.7,41.9,54.6,47.8,40.1,98,85,57,29.74,29.47,7,2,0,1.21
2013-3-13,48.7,41.0,32.9,39.9,30.2,20.9,93,66,52,29.92,29.72,13,4,0,0.00
2013-3-14,49.6,37.7,27.7,29.8,23.6,19.0,75,58,44,30.04,29.90,11,4,0,0.00
2013-3-15,63.0,47.2,29.3,44.7,33.9,22.0,93,61,50,29.94,29.63,9,2,0,0.00
2013-3-16,80.1,59.5,39.9,64.0,51.0,39.4,98,78,44,29.63,29.39,11,3,0,0.00
2013-3-17,55.9,49.3,38.1,55.3,48.8,37.6,98,98,98,29.91,29.60,7,2,0,0.01
2013-3-18,37.9,36.2,35.1,37.4,35.7,34.6,98,98,98,29.92,29.63,6,2,0,0.35
2013-3-19,60.4,46.0,32.9,59.8,45.5,32.4,98,98,98,29.81,29.57,11,4,0,0.02
2013-3-20,57.4,44.8,33.6,56.8,44.3,33.1,98,98,98,29.86,29.54,8,3,0,0.00
2013-3-21,42.3,33.5,26.6,41.8,33.0,26.1,98,98,97,29.74,29.53,11,4,0,0.00
2013-3-22,55.0,36.7,20.5,54.4,36.1,20.0,98,98,94,29.83,29.66,6,2,0,0.00
2013-3-23,60.1,45.2,36.1,59.2,44.5,35.4,98,98,91,29.80,29.64,5,1,0,0.00
2013-3-24,40.5,37.5,32.9,40.0,37.0,32.4,98,98,98,29.68,29.30,6,1,0,1.09
2013-3-25,43.9,36.8,32.0,41.8,33.2,31.3,98,88,67,29.57,29.29,18,4,0,0.06
2013-3-26,44.6,38.3,32.4,39.8,35.4,31.9,98,90,70,29.90,29.57,13,4,0,0.00
2013-3-27,45.5,38.1,32.5,36.0,32.1,29.4,98,80,61,30.02,29.90,10,4,0,0.00
2013-3-28,53.4,42.4,33.3,39.9,34.5,30.8,98,75,59,30.04,29.94,7,3,0,0.00
2013-3-29,61.7,44.2,25.3,61.1,42.9,24.8,98,96,61,30.10,29.90,8,2,0,0.00
2013-3-30,66.4,51.0,35.8,50.2,41.8,35.3,98,73,51,30.01,29.80,5,1,0,0.00
2013-3-31,63.0,51.4,44.2,62.4,50.5,42.0,98,97,81,29.80,29.53,5,1,0,0.24
2013-4-1,65.7,55.0,45.5,53.4,47.5,40.2,98,78,56,29.75,29.57,9,3,0,0.00
2013-4-2,57.7,46.4,32.0,44.3,37.4,31.5,98,73,52,29.92,29.74,8,2,0,0.00
2013-4-3,61.5,46.2,30.6,35.7,28.6,21.3,79,52,36,30.07,29.89,6,2,0,0.00
2013-4-4,43.7,37.7,33.6,37.8,29.7,22.1,98,75,48,30.11,29.73,6,1,0,1.00
2013-4-5,63.0,48.7,34.9,56.0,43.1,34.4,98,83,55,29.79,29.67,5,2,0,0.24
2013-4-6,66.2,52.2,36.0,65.6,51.0,35.5,98,96,74,30.02,29.80,5,2,0,0.00
2013-4-7,71.1,55.4,37.0,64.2,51.8,36.5,98,89,71,30.00,29.82,9,2,0,0.00
2013-4-8,79.0,62.4,43.3,74.2,59.1,42.8,98,90,70,29.92,29.75,9,2,0,0.00
2013-4-9,84.2,67.6,48.9,81.6,62.6,48.4,98,86,58,29.94,29.77,7,2,0,0.00
2013-4-10,86.2,71.3,54.1,85.0,66.1,53.5,98,86,62,29.85,29.63,9,2,0,0.00
2013-4-11,81.0,68.8,53.6,76.2,66.2,53.0,98,92,69,29.72,29.46,10,2,0,0.35
2013-4-12,79.0,67.1,57.6,74.7,61.2,49.4,98,83,55,29.57,29.37,11,4,0,1.36
2013-4-13,75.4,61.7,48.7,72.3,53.2,45.0,98,74,58,29.77,29.57,9,3,0,0.00
2013-4-14,82.0,62.6,42.4,81.4,59.5,41.9,98,90,69,29.87,29.74,9,2,0,0.00
2013-4-15,62.1,56.4,53.2,61.5,55.8,52.6,98,98,98,29.99,29.77,6,1,0,0.60
2013-4-16,77.4,65.2,56.7,76.8,64.6,56.1,98,98,98,30.08,29.91,6,1,0,0.00
2013-4-17,77.9,67.3,58.1,77.3,66.7,57.5,98,98,98,30.00,29.86,4,1,0,0.00
2013-4-18,78.4,67.5,57.2,77.8,66.9,56.6,98,98,98,29.93,29.72,8,2,0,0.00
2013-4-19,68.7,64.4,52.0,68.1,63.8,51.5,98,98,98,29.71,29.44,11,3,0,1.73
2013-4-20,63.3,52.2,40.8,62.7,51.7,40.3,98,98,98,30.04,29.64,12,3,0,0.01
2013-4-21,62.1,49.4,37.0,61.5,48.9,36.5,98,98,98,30.27,30.03,7,2,0,0.00
2013-4-22,64.9,50.4,38.3,64.3,49.8,37.8,98,98,98,30.24,29.99,9,2,0,0.00
2013-4-23,70.7,57.2,43.5,68.2,56.1,43.0,98,96,86,30.05,29.83,6,1,0,0.00
2013-4-24,73.0,60.0,44.8,72.4,59.4,44.3,98,98,98,29.87,29.70,7,2,0,0.05
2013-4-25,70.3,56.0,39.7,69.7,55.3,39.2,98,97,88,30.05,29.81,6,2,0,0.01
2013-4-26,70.2,56.7,40.5,69.6,56.0,40.0,98,98,90,30.22,30.05,5,1,0,0.00
2013-4-27,66.9,58.2,52.5,66.3,57.6,52.0,98,98,95,30.12,30.01,3,0,0,0.07
2013-4-28,55.8,54.6,53.2,55.2,54.0,52.6,98,98,98,30.02,29.82,3,0,0,0.99
2013-4-29,70.0,59.5,53.6,69.4,58.9,53.0,98,98,98,29.84,29.72,4,1,0,0.12
2013-4-30,76.1,63.1,54.0,75.5,62.5,53.4,98,98,98,29.95,29.76,6,1,0,0.00
2013-5-1,68.9,61.9,55.6,68.3,61.3,55.0,98,98,98,30.08,29.93,9,2,0,0.00
2013-5-2,66.6,59.6,55.0,66.0,59.0,54.4,98,98,98,30.10,30.00,6,2,0,0.00
2013-5-3,67.1,59.2,53.1,66.5,58.6,52.5,98,98,98,30.04,29.91,9,2,0,0.00
2013-5-4,63.3,53.8,47.8,62.7,53.3,47.3,98,98,98,29.95,29.80,10,3,0,0.00
2013-5-5,54.1,52.0,49.3,53.5,51.5,48.8,98,98,98,29.85,29.72,12,3,0,0.28
2013-5-6,63.3,56.3,53.1,62.7,55.7,52.5,98,98,98,29.73,29.58,7,2,0,1.35
2013-5-7,68.5,56.5,52.5,67.9,55.9,52.0,98,98,98,29.70,29.61,7,1,0,0.20
2013-5-8,62.1,56.0,52.7,61.5,55.4,52.2,98,98,98,29.79,29.67,3,0,0,0.36
2013-5-9,78.6,63.8,47.7,78.0,63.2,47.2,98,98,98,29.85,29.74,4,1,0,0.00
2013-5-10,82.2,68.0,52.0,81.6,67.4,51.5,98,98,98,29.83,29.67,7,1,0,0.00
2013-5-11,77.5,68.3,61.9,76.9,67.7,61.3,98,98,98,29.68,29.53,7,1,0,0.00
2013-5-12,67.8,59.6,46.2,67.2,59.0,45.7,98,98,98,29.80,29.58,7,2,0,0.00
2013-5-13,68.0,53.0,37.2,67.4,52.4,36.7,98,98,98,29.94,29.79,6,1,0,0.00
2013-5-14,71.2,55.6,36.3,70.6,55.0,35.8,98,98,98,30.02,29.78,9,2,0,0.00
2013-5-15,90.7,68.7,47.1,90.1,68.1,46.6,98,98,98,29.80,29.62,5,1,0,0.00
2013-5-16,84.6,72.9,61.5,84.0,72.3,60.9,98,98,98,29.74,29.64,8,1,0,0.00
2013-5-17,88.3,70.0,56.8,87.7,69.4,56.2,98,98,98,29.87,29.73,4,0,0,0.12
2013-5-18,73.0,65.9,59.4,72.4,65.3,58.8,98,98,98,29.92,29.83,4,1,0,0.20
2013-5-19,76.8,67.5,63.3,76.2,66.9,62.7,98,98,98,29.89,29.78,5,1,0,0.28
2013-5-20,80.8,70.2,64.4,80.2,69.6,63.8,98,98,98,29.88,29.75,4,0,0,0.58
2013-5-21,86.5,73.7,61.7,85.9,73.1,61.1,98,98,98,29.82,29.64,6,1,0,0.00
2013-5-22,82.6,69.8,63.1,82.0,69.2,62.5,98,98,98,29.76,29.62,6,1,0,0.39
2013-5-23,79.5,68.7,62.4,78.9,68.1,61.8,98,98,98,29.70,29.54,4,1,0,0.58
2013-5-24,68.4,61.8,50.9,67.8,61.2,50.4,98,98,98,29.96,29.61,10,3,0,0.01
2013-5-25,73.9,60.6,48.6,73.3,60.1,48.1,98,98,98,30.04,29.89,6,2,0,0.00
2013-5-26,76.5,64.3,55.0,75.9,63.7,54.4,98,98,98,30.05,29.90,4,1,0,0.00
2013-5-27,80.4,66.2,50.2,79.8,65.6,49.7,98,98,98,30.05,29.87,6,1,0,0.00
2013-5-28,82.9,70.6,56.8,82.3,70.0,56.2,98,98,98,29.98,29.86,6,1,0,0.00
2013-5-29,87.8,73.2,59.2,87.2,72.6,58.6,98,98,98,30.00,29.87,7,1,0,0.00
2013-5-30,87.1,72.0,57.6,86.5,71.4,57.0,98,98,98,30.04,29.90,6,1,0,0.00
2013-5-31,85.6,72.8,59.7,85.0,72.2,59.1,98,98,98,29.98,29.82,6,1,0,0.00
2013-6-1,87.3,74.1,61.2,86.7,73.5,60.6,98,98,98,29.88,29.73,10,2,0,0.00
2013-6-2,79.3,70.8,64.8,78.7,70.2,64.2,98,98,98,29.78,29.66,6,1,0,0.12
2013-6-3,86.2,74.0,66.6,85.6,73.4,66.0,98,98,98,29.73,29.57,8,1,0,0.08
2013-6-4,78.1,69.2,61.2,77.5,68.6,60.6,98,98,98,29.86,29.71,5,1,0,0.00
2013-6-5,73.9,66.8,60.3,73.3,66.2,59.7,98,98,98,29.90,29.77,4,1,0,0.00
2013-6-6,74.8,66.7,64.0,74.2,66.1,63.4,98,98,98,29.77,29.58,4,0,0,5.60
2013-6-7,77.0,71.1,66.9,76.4,70.5,66.3,98,98,98,29.60,29.43,3,0,0,0.00
2013-6-8,82.2,71.8,62.6,81.6,71.2,62.0,98,98,98,29.85,29.58,4,1,0,0.18
2013-6-9,88.0,74.3,64.6,87.4,73.7,64.0,98,98,98,29.93,29.80,5,1,0,0.47
2013-6-10,80.6,72.7,68.4,80.0,72.1,67.8,98,98,98,29.84,29.60,6,2,0,0.26
2013-6-11,83.8,72.9,62.2,83.2,72.3,61.6,98,98,98,29.74,29.64,6,1,0,0.10
2013-6-12,93.6,77.1,62.8,92.9,76.5,62.2,98,98,98,29.74,29.63,5,1,0,0.00
2013-6-13,92.7,78.8,69.6,92.0,78.2,69.0,98,98,98,29.63,29.34,7,2,0,0.00
2013-6-14,80.8,70.7,61.7,80.2,70.1,61.1,98,98,98,29.81,29.56,6,2,0,0.00
2013-6-15,85.8,71.4,57.6,85.2,70.8,57.0,98,98,98,29.92,29.79,5,1,0,0.00
2013-6-16,86.2,74.1,61.3,85.6,73.5,60.7,98,98,98,29.88,29.73,5,1,0,0.00
2013-6-17,83.7,73.9,68.5,83.1,73.3,67.9,98,98,98,29.78,29.68,6,1,0,0.64
2013-6-18,80.1,71.8,67.3,79.5,71.2,66.7,98,98,98,29.71,29.55,6,1,0,0.78
2013-6-19,82.6,71.1,61.5,82.0,70.5,60.9,98,98,98,29.89,29.66,5,0,0,0.18
2013-6-20,79.7,71.8,66.6,79.1,71.2,66.0,98,98,98,30.02,29.89,4,1,0,0.01
2013-6-21,85.3,72.5,63.5,84.7,71.9,62.9,98,98,98,30.04,29.94,6,1,0,0.00
2013-6-22,86.0,72.6,58.3,85.4,72.0,57.7,98,98,98,30.01,29.85,4,1,0,0.00
2013-6-23,90.0,77.2,68.0,89.4,76.6,67.4,98,98,96,29.97,29.87,6,1,0,0.00
2013-6-24,88.3,75.7,66.4,87.7,75.1,65.8,98,98,98,29.97,29.82,4,1,0,0.09
2013-6-25,89.4,75.3,66.4,88.8,74.7,65.8,98,98,98,29.89,29.75,5,0,0,0.08
2013-6-26,91.6,74.0,65.7,91.0,73.4,65.1,98,98,98,29.79,29.64,5,1,0,0.20
2013-6-27,85.3,75.0,67.6,84.7,74.4,67.0,98,98,98,29.70,29.46,9,1,0,0.00
2013-6-28,90.9,77.9,67.8,90.3,77.3,67.2,98,98,98,29.50,29.31,5,1,0,0.02
2013-6-29,86.2,75.2,64.2,85.6,74.6,63.6,98,98,98,29.48,29.36,5,1,0,0.00
2013-6-30,86.4,75.3,67.3,85.8,74.7,66.7,98,98,98,29.60,29.45,5,1,0,0.02
2013-7-1,81.0,73.2,67.5,80.4,72.6,66.9,98,98,98,29.73,29.58,6,1,0,0.04
2013-7-2,77.9,70.8,68.5,77.3,70.2,67.9,98,98,98,29.92,29.72,7,1,0,4.86
2013-7-3,81.3,73.5,69.3,80.7,72.9,68.7,98,98,98,30.00,29.89,7,1,0,1.18
2013-7-4,86.2,75.9,70.9,85.6,75.3,70.3,98,98,98,30.03,29.91,6,1,0,0.79
2013-7-5,85.3,75.8,71.2,84.7,75.2,70.6,98,98,98,30.01,29.93,8,1,0,0.57
2013-7-6,86.4,76.3,71.2,85.8,75.7,70.6,98,98,98,30.00,29.88,6,1,0,0.29
2013-7-7,82.8,74.5,69.6,82.2,73.9,69.0,98,98,98,29.94,29.82,5,1,0,2.16
2013-7-8,88.3,76.4,69.4,87.7,75.8,68.8,98,98,98,29.96,29.84,5,1,0,0.00
2013-7-9,92.3,79.5,70.9,91.6,78.9,70.3,98,98,98,29.91,29.78,5,1,0,0.00
2013-7-10,86.9,75.9,70.3,86.3,75.3,69.7,98,98,98,29.84,29.69,7,1,0,0.23
2013-7-11,84.2,74.7,71.6,83.6,74.1,71.0,98,98,98,29.73,29.62,5,0,0,0.65
2013-7-12,81.0,73.6,67.1,80.4,73.0,66.5,98,98,98,29.81,29.64,5,1,0,0.00
2013-7-13,79.9,72.6,66.7,79.3,72.0,66.1,98,98,98,29.92,29.80,6,0,0,0.00
2013-7-14,86.4,77.4,72.1,85.8,76.8,71.5,98,98,98,30.09,29.91,5,1,0,0.32
2013-7-15,91.0,77.0,68.7,90.4,76.4,68.1,98,98,98,30.12,30.00,3,0,0,0.00
2013-7-16,94.8,78.3,66.7,94.1,77.7,66.1,98,98,98,30.09,29.95,5,0,0,0.02
2013-7-17,95.2,77.2,71.6,94.5,76.5,71.0,98,98,98,30.02,29.88,7,0,0,0.69
2013-7-18,92.3,79.5,70.5,91.6,78.9,69.9,98,98,98,29.95,29.78,4,0,0,0.01
2013-7-19,91.8,78.4,71.1,91.2,77.8,70.5,98,98,98,29.85,29.71,5,1,0,0.28
2013-7-20,90.3,77.1,71.6,89.7,76.5,71.0,98,98,98,29.77,29.66,6,1,0,0.22
2013-7-21,84.4,74.5,70.2,83.8,73.9,69.6,98,98,98,29.76,29.68,4,0,0,0.90
2013-7-22,90.3,76.3,71.8,89.7,75.7,71.2,98,98,98,29.74,29.59,4,1,0,1.28
2013-7-23,90.9,78.3,69.6,90.3,77.7,69.0,98,98,98,29.61,29.50,4,1,0,0.23
2013-7-24,88.5,77.5,68.5,87.9,76.9,67.9,98,98,98,29.63,29.52,3,0,0,0.00
2013-7-25,82.6,74.2,66.2,82.0,73.6,65.6,98,98,98,29.82,29.63,6,1,0,0.08
2013-7-26,82.9,73.4,64.9,82.3,72.8,64.3,98,98,98,29.89,29.76,5,1,0,0.00
2013-7-27,75.7,71.3,68.5,75.1,70.7,67.9,98,98,98,29.81,29.70,4,0,0,2.26
2013-7-28,85.1,75.2,69.4,84.5,74.6,68.8,98,98,98,29.77,29.67,4,1,0,0.00
2013-7-29,86.7,71.8,61.7,86.1,71.2,61.1,98,98,98,29.96,29.77,4,0,0,0.00
2013-7-30,81.0,71.3,60.6,80.4,70.7,60.0,98,98,98,30.02,29.91,4,0,0,0.00
2013-7-31,74.8,69.8,67.5,74.2,69.2,66.9,98,98,98,29.94,29.76,2,0,0,0.12
2013-8-1,87.3,75.5,69.1,86.7,74.9,68.5,98,98,98,29.76,29.63,3,0,0,0.00
2013-8-2,86.0,75.2,64.2,85.4,74.6,63.6,98,98,98,29.81,29.71,5,1,0,0.00
2013-8-3,88.0,75.9,65.7,87.4,75.3,65.1,98,98,98,29.80,29.69,5,0,0,0.00
2013-8-4,86.9,75.4,66.7,86.3,74.8,66.1,98,98,98,29.82,29.70,3,1,0,0.06
2013-8-5,82.0,73.1,62.1,81.4,72.5,61.5,98,98,98,29.87,29.72,5,1,0,0.00
2013-8-6,80.6,74.2,69.8,80.0,73.6,69.2,98,98,98,29.82,29.73,5,2,0,0.00
2013-8-7,79.9,73.4,70.3,79.3,72.8,69.7,98,98,98,29.86,29.79,7,1,0,0.04
2013-8-8,84.7,75.6,71.6,84.1,75.0,71.0,98,98,98,29.84,29.76,4,1,0,0.15
2013-8-9,88.5,78.4,71.8,87.9,77.8,71.2,98,98,98,29.82,29.74,6,1,0,0.01
2013-8-10,89.4,75.8,70.5,88.8,75.2,69.9,98,98,98,29.88,29.79,5,1,0,0.22
2013-8-11,89.1,76.9,68.2,88.5,76.3,67.6,98,98,98,29.90,29.78,6,1,0,0.01
2013-8-12,90.5,77.8,69.4,89.9,77.2,68.8,98,98,98,29.84,29.71,7,1,0,1.74
2013-8-13,84.4,74.2,68.5,83.8,73.6,67.9,98,98,98,29.73,29.55,4,0,0,0.56
2013-8-14,80.2,70.0,60.3,79.6,69.4,59.7,98,98,98,29.86,29.64,5,1,0,0.00
2013-8-15,75.9,64.5,56.1,75.3,63.9,55.5,98,98,98,29.96,29.85,5,0,0,0.00
2013-8-16,75.9,64.1,54.1,75.3,63.5,53.5,98,98,98,29.97,29.87,5,1,0,0.00
2013-8-17,72.5,64.0,57.6,71.9,63.4,57.0,98,98,98,30.00,29.92,4,0,0,0.15
2013-8-18,78.3,69.9,64.0,77.7,69.3,63.4,98,98,98,30.00,29.91,4,0,0,0.18
2013-8-19,77.9,70.2,66.2,77.3,69.6,65.6,98,98,98,29.96,29.85,3,0,0,1.06
2013-8-20,84.0,73.7,65.5,83.4,73.1,64.9,98,98,98,29.97,29.87,3,0,0,0.00
2013-8-21,82.4,74.5,68.5,81.8,73.9,67.9,98,98,98,30.01,29.88,4,0,0,0.00
2013-8-22,92.8,75.6,65.8,92.1,75.0,65.2,98,98,98,29.92,29.77,4,0,0,0.13
2013-8-23,86.7,73.4,66.0,86.1,72.8,65.4,98,98,98,29.87,29.70,4,0,0,0.05
2013-8-24,84.9,69.5,60.3,84.3,68.9,59.7,98,98,98,30.08,29.88,5,1,0,0.00
2013-8-25,86.4,68.6,57.2,85.8,68.0,56.6,98,98,98,30.18,30.04,4,0,0,0.00
2013-8-26,86.4,70.3,56.8,85.8,69.7,56.2,98,98,98,30.09,29.85,3,0,0,0.00
2013-8-27,91.0,75.2,63.1,90.4,74.6,62.5,98,98,98,29.88,29.75,6,1,0,0.00
2013-8-28,89.1,78.5,69.6,88.5,77.9,69.0,98,98,98,29.78,29.64,6,1,0,0.00
2013-8-29,91.8,79.6,72.7,91.2,79.0,72.1,98,98,98,29.79,29.61,5,1,0,0.14
2013-8-30,85.5,76.4,70.3,84.9,75.8,69.7,98,98,98,29.84,29.68,5,1,0,0.00
2013-8-31,92.7,74.6,67.8,92.0,74.0,67.2,98,98,98,29.73,29.62,6,1,0,0.71
2013-9-1,82.8,72.9,67.8,82.2,72.3,67.2,98,98,98,29.67,29.57,3,0,0,0.17
2013-9-2,93.0,77.0,66.9,92.3,76.4,66.3,98,98,98,29.67,29.53,4,0,0,0.00
2013-9-3,90.3,76.0,65.5,89.7,75.4,64.9,98,98,98,29.76,29.56,5,1,0,0.00
2013-9-4,88.2,71.0,59.7,87.6,70.4,59.1,98,98,98,29.88,29.75,4,1,0,0.00
2013-9-5,94.1,71.9,58.8,93.4,71.3,58.2,98,98,98,29.90,29.81,3,0,0,0.00
2013-9-6,80.4,69.2,60.4,79.8,68.6,59.8,98,98,98,29.99,29.86,4,1,0,0.00
2013-9-7,82.4,69.6,57.2,81.8,69.0,56.6,98,98,98,29.92,29.74,6,1,0,0.00
2013-9-8,90.0,73.1,61.3,89.4,72.5,60.7,98,98,98,29.77,29.68,5,0,0,0.00
2013-9-9,84.9,73.9,64.9,84.3,73.3,64.3,98,98,98,29.93,29.78,5,1,0,0.00
2013-9-10,91.8,76.2,65.8,91.2,75.6,65.2,98,98,98,30.01,29.90,6,1,0,0.00
2013-9-11,94.8,73.9,66.9,94.1,73.3,66.3,98,98,98,29.98,29.84,5,0,0,0.32
2013-9-12,95.5,76.7,66.6,94.8,76.1,66.0,98,98,98,29.85,29.58,4,1,0,0.00
2013-9-13,88.0,70.8,57.7,87.4,70.2,57.1,98,98,98,29.71,29.56,6,1,0,0.00
2013-9-14,86.4,63.4,50.0,85.8,62.8,49.5,98,98,98,29.91,29.70,5,1,0,0.00
2013-9-15,79.9,63.7,50.4,79.3,63.2,49.9,98,98,98,30.03,29.88,6,1,0,0.00
2013-9-16,82.6,68.0,57.9,82.0,67.4,57.3,98,98,98,29.98,29.84,3,0,0,0.00
2013-9-17,72.7,62.4,53.6,72.1,61.8,53.0,98,98,98,30.13,29.98,4,1,0,0.00
2013-9-18,70.3,61.5,55.4,69.7,60.9,54.8,98,98,98,30.10,29.96,4,0,0,0.00
2013-9-19,76.1,66.3,59.4,75.5,65.7,58.8,98,98,98,29.97,29.85,4,0,0,0.00
2013-9-20,85.5,70.6,64.8,84.9,70.0,64.2,98,98,98,29.85,29.70,3,1,0,2.12
2013-9-21,72.0,67.1,60.4,71.4,66.5,59.8,98,98,98,29.71,29.45,5,1,0,0.83
2013-9-22,78.4,64.1,54.7,77.8,63.5,54.1,98,98,98,29.69,29.50,4,0,0,0.02
2013-9-23,72.7,61.1,53.4,72.1,60.5,52.8,98,98,98,29.86,29.70,5,1,0,0.00
2013-9-24,78.8,64.9,53.8,78.2,64.3,53.2,98,98,98,29.88,29.69,4,1,0,0.00
2013-9-25,71.6,61.2,55.0,71.0,60.6,54.4,98,98,98,29.72,29.63,3,0,0,0.09
2013-9-26,79.3,65.3,58.1,78.7,64.7,57.5,98,98,98,29.82,29.66,3,0,0,0.00
2013-9-27,86.0,64.0,52.2,85.4,63.4,51.7,98,98,98,29.97,29.82,5,1,0,0.00
2013-9-28,73.6,61.9,54.0,73.0,61.3,53.4,98,98,98,30.05,29.95,5,0,0,0.00
2013-9-29,74.8,61.9,52.0,74.2,61.3,51.5,98,98,98,29.97,29.80,3,0,0,0.00
2013-9-30,86.4,64.8,53.1,85.8,64.2,52.5,98,98,98,29.88,29.75,4,0,0,0.00
2013-10-1,92.1,66.3,54.3,91.4,65.7,53.7,98,98,98,29.90,29.79,6,0,0,0.00
2013-10-2,95.2,69.0,55.2,94.5,68.4,54.6,98,98,98,29.93,29.81,4,0,0,0.00
2013-10-3,85.5,69.7,59.0,84.9,69.1,58.4,98,98,98,29.90,29.80,5,0,0,0.00
2013-10-4,89.6,71.6,58.5,88.8,71.0,57.9,98,98,98,29.91,29.80,3,0,0,0.00
2013-10-5,97.0,73.8,61.7,96.3,73.2,61.1,98,98,98,29.90,29.78,4,0,0,0.00
2013-10-6,87.6,70.7,59.7,87.0,70.1,59.1,98,98,98,29.82,29.65,6,1,0,0.00
2013-10-7,74.7,65.7,53.4,74.1,65.1,52.8,98,98,98,29.79,29.55,4,1,0,1.18
2013-10-8,71.6,58.0,48.7,71.0,57.4,48.2,98,98,98,30.00,29.79,7,1,0,0.00
2013-10-9,80.1,57.4,45.1,79.5,56.8,44.6,98,98,98,30.04,29.91,4,1,0,0.00
2013-10-10,73.2,59.6,48.0,72.6,59.0,47.5,98,98,98,29.91,29.73,5,1,0,0.07
2013-10-11,77.0,66.8,59.2,76.4,66.2,58.6,98,98,98,29.75,29.67,6,1,0,0.00
2013-10-12,76.5,67.5,62.1,75.9,66.9,61.5,98,98,98,29.85,29.72,4,0,0,0.00
2013-10-13,74.5,65.6,61.2,73.9,65.0,60.6,98,98,98,30.00,29.85,2,0,0,0.04
2013-10-14,73.2,64.5,58.5,72.6,63.9,57.9,98,98,98,30.02,29.91,5,1,0,0.06
2013-10-15,76.5,63.0,53.4,75.9,62.4,52.8,98,98,98,29.99,29.82,4,0,0,0.12
2013-10-16,78.6,63.7,53.6,78.0,63.1,53.0,98,98,98,29.84,29.69,3,0,0,0.00
2013-10-17,67.5,63.2,59.4,66.9,62.6,58.8,98,98,98,29.71,29.57,4,0,0,0.04
2013-10-18,70.9,59.9,48.9,70.3,59.3,48.4,98,98,98,29.81,29.65,7,1,0,0.00
2013-10-19,66.7,57.9,51.6,66.1,57.3,51.1,98,98,98,29.74,29.59,3,0,0,0.00
2013-10-20,75.7,54.9,40.5,75.1,54.3,40.0,98,98,98,29.88,29.70,4,1,0,0.00
2013-10-21,78.1,54.5,38.7,77.5,54.0,38.2,98,98,98,29.93,29.74,6,1,0,0.00
2013-10-22,73.9,59.2,50.4,73.3,58.6,49.9,98,98,98,29.76,29.53,5,1,0,0.00
2013-10-23,65.5,52.2,40.3,64.9,51.6,39.8,98,98,98,29.78,29.47,7,2,0,0.00
2013-10-24,55.2,44.7,36.0,54.6,44.1,35.5,98,98,98,29.95,29.79,7,1,0,0.00
2013-10-25,50.2,40.7,32.0,49.7,40.2,31.5,98,98,98,30.15,29.95,6,1,0,0.00
2013-10-26,65.5,43.6,26.6,64.9,40.3,-99.9,98,92,47,30.13,29.79,8,-10,0,0.00
2013-10-27,69.1,53.1,36.9,43.1,36.5,32.6,87,56,28,29.88,29.76,5,1,0,0.00
2013-10-28,63.9,53.1,41.2,50.9,46.1,37.3,89,78,60,30.02,29.87,4,0,0,0.00
2013-10-29,72.7,58.7,46.9,53.2,49.7,44.1,98,75,45,30.11,29.98,4,1,0,0.00
2013-10-30,73.6,60.7,53.1,59.0,54.1,49.7,90,80,53,30.03,29.89,3,0,0,0.04
2013-10-31,66.6,60.4,54.0,57.5,54.6,52.8,98,82,63,29.91,29.58,7,1,0,0.00
2013-11-1,75.6,65.7,53.1,60.6,57.0,49.0,98,74,50,29.58,29.35,9,3,0,0.00
2013-11-2,69.4,56.6,47.8,48.3,36.5,29.4,84,50,24,29.70,29.43,14,3,0,0.00
2013-11-3,62.1,48.5,38.1,33.9,31.1,28.2,71,53,29,30.11,29.71,8,2,0,0.00
2013-11-4,57.6,42.1,31.5,30.6,28.0,24.3,85,61,30,30.31,30.11,4,1,0,0.00
2013-11-5,59.0,45.7,31.3,44.8,35.8,26.4,88,69,50,30.35,30.20,3,0,0,0.00
2013-11-6,70.3,54.6,46.6,49.1,46.6,43.8,98,77,45,30.20,29.86,4,1,0,0.00
2013-11-7,61.0,48.8,39.0,54.4,39.8,26.7,98,74,40,29.89,29.73,10,2,0,0.00
2013-11-8,52.9,38.6,29.8,26.8,22.5,18.1,74,54,25,30.06,29.89,3,1,0,0.00
2013-11-9,55.6,39.0,25.3,28.7,24.2,20.9,86,60,27,30.12,29.92,6,1,0,0.00
2013-11-10,68.9,49.5,31.8,36.6,23.4,8.1,80,44,13,30.00,29.85,14,3,0,0.00
2013-11-11,60.8,44.6,31.8,26.1,20.7,10.9,70,42,15,30.09,29.87,7,1,0,0.00
2013-11-12,57.2,39.3,27.1,36.2,23.7,11.8,75,54,39,30.21,29.79,7,2,0,0.00
2013-11-13,52.0,34.0,24.4,16.8,11.1,-0.3,65,42,12,30.30,30.19,6,2,0,0.00
2013-11-14,60.6,37.4,19.4,22.0,13.3,0.1,80,46,9,30.22,30.06,5,1,0,0.00
2013-11-15,57.0,41.3,24.6,43.6,27.4,17.4,88,61,32,30.09,29.97,2,0,0,0.08
2013-11-16,57.6,51.0,45.1,52.5,48.2,42.3,98,90,78,30.04,29.96,2,0,0,0.00
2013-11-17,57.7,54.9,52.3,56.6,54.1,51.8,98,97,89,29.97,29.61,3,0,0,0.21
2013-11-18,70.2,58.8,47.5,57.9,38.7,21.1,98,54,17,29.75,29.56,11,3,0,0.10
2013-11-19,59.7,45.1,35.6,26.8,21.6,13.1,70,41,16,30.05,29.75,7,2,0,0.00
2013-11-20,53.6,41.2,29.5,27.0,23.9,20.5,72,51,32,30.24,30.04,5,1,0,0.00
2013-11-21,54.0,46.5,40.6,41.6,36.0,26.7,75,67,56,30.28,30.16,2,0,0,0.00
2013-11-22,60.8,53.7,46.8,53.3,48.7,41.0,91,83,74,30.16,29.85,6,1,0,0.00
2013-11-23,59.5,49.7,34.3,51.5,31.4,10.5,88,52,24,29.97,29.82,11,4,0,0.00
2013-11-24,39.0,28.8,20.7,12.7,-0.4,-17.6,51,31,9,30.28,29.99,11,3,0,0.00
2013-11-25,37.0,27.9,17.2,24.3,6.4,1.0,74,42,23,30.30,30.12,4,1,0,0.01
2013-11-26,43.0,35.9,30.7,42.5,33.5,23.9,98,91,73,30.11,29.37,3,0,0,2.37
2013-11-27,44.8,34.3,24.6,43.2,23.2,7.9,98,64,47,29.93,29.32,12,5,0,0.09
2013-11-28,45.3,30.1,21.6,16.8,12.2,8.8,75,49,27,30.22,29.93,7,2,0,0.00
2013-11-29,55.9,34.7,20.1,22.5,18.1,14.7,83,55,23,30.40,30.21,4,1,0,0.00
2013-11-30,46.2,30.6,20.5,23.5,19.0,15.8,84,64,36,30.43,30.13,4,0,0,0.00
2013-12-1,57.2,37.3,19.8,28.9,24.1,15.2,86,62,30,30.12,29.77,4,1,0,0.00
2013-12-2,55.0,41.9,27.7,35.1,30.5,23.1,84,66,45,29.77,29.57,4,0,0,0.00
2013-12-3,60.6,48.0,36.0,46.9,39.1,31.4,87,72,51,29.72,29.61,4,0,0,0.00
2013-12-4,57.9,52.4,48.6,53.4,49.8,46.1,98,91,77,29.83,29.70,3,0,0,0.00
2013-12-5,62.1,57.4,52.9,61.5,56.6,52.4,98,97,90,29.85,29.72,4,0,0,0.23
2013-12-6,73.0,66.2,58.8,64.5,61.3,55.6,98,85,68,29.75,29.64,17,3,0,0.60
2013-12-7,58.6,46.9,39.2,57.8,38.6,29.7,98,74,54,30.18,29.73,4,2,0,0.05
2013-12-8,39.2,33.4,31.1,34.9,30.3,27.9,98,88,76,30.19,30.02,6,1,0,0.52
2013-12-9,42.8,36.3,31.5,41.2,34.7,28.9,98,94,87,30.01,29.79,3,1,0,0.44
2013-12-10,48.9,39.5,29.5,45.4,31.3,14.1,98,75,46,30.04,29.68,11,2,0,0.50
2013-12-11,48.7,34.4,23.4,23.4,16.9,12.9,76,51,27,30.18,30.01,7,2,0,0.00
2013-12-12,45.9,33.5,26.1,19.6,9.5,-8.6,66,40,11,30.16,30.03,9,2,0,0.00
2013-12-13,48.9,34.5,20.7,23.8,15.1,10.1,75,47,24,30.12,29.99,4,1,0,0.00
2013-12-14,36.9,35.8,33.8,36.4,31.0,22.7,98,83,60,30.02,29.52,3,0,0,0.67
2013-12-15,45.9,38.8,31.8,37.4,29.8,23.4,98,72,48,29.81,29.46,11,3,0,0.00
2013-12-16,55.2,39.5,28.9,31.5,27.1,23.5,81,63,37,29.89,29.79,10,2,0,0.00
2013-12-17,62.4,44.9,29.7,37.8,29.3,19.6,86,58,28,29.85,29.60,12,3,0,0.00
2013-12-18,50.2,37.2,29.5,18.7,12.0,-4.4,55,38,10,30.01,29.79,11,3,0,0.00
2013-12-19,61.3,39.7,24.8,28.3,21.0,14.7,77,51,19,30.05,29.93,5,1,0,0.00
2013-12-20,59.4,43.5,31.5,38.3,31.8,24.2,80,65,41,29.97,29.85,4,0,0,0.00
2013-12-21,63.0,51.0,38.1,57.8,45.6,34.6,98,82,65,29.89,29.71,4,1,0,0.00
2013-12-22,66.4,60.3,56.7,64.3,59.0,56.1,98,96,81,29.81,29.69,8,2,0,1.68
2013-12-23,61.3,51.8,34.7,60.7,47.7,26.9,98,86,69,29.94,29.69,8,2,0,1.17
2013-12-24,42.1,32.3,19.6,26.5,17.6,8.2,73,56,31,30.21,29.92,15,4,0,0.00
2013-12-25,39.2,24.6,14.9,13.7,7.2,-1.5,76,52,20,30.29,30.10,6,1,0,0.00
2013-12-26,54.0,32.5,17.4,25.4,17.2,10.9,79,57,24,30.12,29.98,5,1,0,0.00
2013-12-27,53.6,35.7,22.3,22.0,15.5,8.9,78,47,20,30.22,30.09,5,1,0,0.00
2013-12-28,52.3,37.0,21.9,39.1,24.8,17.3,98,65,31,30.15,29.92,3,0,0,0.13
2013-12-29,59.2,45.1,39.0,48.2,39.8,32.5,98,83,54,29.91,29.48,10,2,0,0.74
2013-12-30,49.1,42.7,37.9,36.0,33.0,29.7,79,69,59,29.89,29.68,5,2,0,0.00
2013-12-31,46.4,37.9,29.1,31.8,20.7,15.4,78,52,29,30.12,29.86,12,3,0,0.00
2014-1-1,48.0,33.0,22.5,27.9,22.0,18.2,85,66,38,30.14,29.89,4,1,0,0.00
2014-1-2,39.6,33.2,26.2,37.0,28.7,14.1,98,84,53,29.88,29.38,12,1,0,0.16